Regional Weather Roundup
Issued by NWS Newport/Morehead, NC

Current Version | Previous Version | Graphics & Text | Print | Product List | Glossary On
Versions: 1 2 3 4 5 6 7 8 9 10 11 12 13 14 15 16 17 18 19 20 21 22 23 24 25 26 27 28 29 30 31 32 33 34 35 36 37 38 39 40 41 42 43 44 45 46 47 48 49 50
000 ASUS42 KMHX 241814 RWRMHX WEATHER ROUNDUP FOR EASTERN NORTH CAROLINA NATIONAL WEATHER SERVICE NEWPORT/MOREHEAD CITY NC 200 PM EDT MON JUL 24 2017 NOTE: "FAIR" INDICATES FEW OR NO CLOUDS BELOW 12,000 FEET WITH NO SIGNIFICANT WEATHER AND/OR OBSTRUCTIONS TO VISIBILITY NCZ015>017-031-032-045>047-102-103-241900- NORTH COAST CITY SKY/WX TMP DP RH WIND PRES REMARKS EDENTON NOT AVBL ELIZABETH CITY CLOUDY 84 77 79 SW10 29.88F KITTY HAWK CLOUDY 83 72 70 SW7 29.88F MANTEO MOSUNNY 84 73 69 W12G17 29.90S $$ NCZ045>047-081-094-103-104-241900- CENTRAL COAST CITY SKY/WX TMP DP RH WIND PRES REMARKS FRISCO CLOUDY 84 76 76 SW12G21 29.93F $$ NCZ095-097-098-100-101-241900- SOUTHERN COAST CITY SKY/WX TMP DP RH WIND PRES REMARKS BEAUFORT MOSUNNY 86 79 79 SW21G28 29.92F CEDAR ISLAND NOT AVBL JACKSONVILLE MOSUNNY 89 76 65 SW14 29.90F HX 100 PINEY ISLAND MOCLDY N/A N/A N/A SW16G22 29.91S WILMINGTON MOSUNNY 83 75 77 S8 29.92F $$ NCZ011>013-027>030-043-044-078>080-089-090>093-098-241900- COASTAL PLAIN CITY SKY/WX TMP DP RH WIND PRES REMARKS AHOSKIE N/A 83 76 78 CALM 29.89S CLINTON NOT AVBL ELIZABETHTOWN NOT AVBL GOLDSBORO PTSUNNY 88 77 69 W10 29.90F HX 100 GREENVILLE CLOUDY 84 73 70 W8 29.93S HAVELOCK MOSUNNY 89 76 65 W14G21 29.91F HX 100 KENANSVILLE CLOUDY 86 73 66 SW9 29.93S KINSTON CLOUDY 88 73 62 W7 29.92S NEW BERN MOSUNNY 89 75 63 SW14G20 29.91F RICHLANDS PTSUNNY 87 76 69 SW9 29.93S ROCKY MOUNT CLOUDY 86 75 69 SW8 29.90F WASHINGTON CLOUDY 85 75 71 SW7 29.90F WHITEVILLE NOT AVBL $$ AMZ130-135-150-152-154-156-158-170-250-252-270-ANZ085-086-088-633-658-670-241900- MARINE OBSERVATIONS STATION/POSITION TIME TEMP WIND PRES WAVE SWELL AIR SEA DIR/SP/G HT/PER HT/PER (UTC) (F) (DEG/KT/KT) (MB) (FT/S) (FT/S) CHESAPEAKE LIGHT NOT AVBL 64 E VA BEACH 1750 79 79 230/ 12/ 14 1012.1 4/ 7 2/ 7 DUCK 1748 82 61 250/ 14/ 17 1011.7 2 E DUCK 1800 70 N/A 2/10 OREGON INLET 1742 83 82 210/ 17/ 19 1012.2 13E OREGON INLT 1748 69 N/A 4/ 7 2/13 HATTERAS CG 1748 82 77 220/ 11/ 15 1013.3 DIAMOND BUOY 1750 83 84 240/ 21/ 23 1013.4 7/ 8 5/ 8 CAPE LOOKOUT 1800 84 220/ 14/ 19 1013.2 BEAUFORT LAB 1748 84 80 220/ 8/ 17 1012.9 30 SE NEW RVR IN 1708 81 82 250/ 17/ 25 1014.2 30 SE NEW RVR IN 1743 82 N/A 7/ 7 27 SE WRIGHTSVLE 1708 82 83 230/ 16/ 21 1014.1 5 SE WRIGHTSVLE 1708 81 81 200/ 12/ 17 1013.8 225 S CAPE HAT 1750 83 83 230/ 16/ 17 1018.1 5/ 6 2/ 8 41 SE CHARLESTON 1750 80 83 230/ 12/ 14 1015.5 5/ 6 3/ 6 $$

USA.gov is the U.S. government's official web portal to all federal, state and local government web resources and services.